| time (UTC) | temp F | wind direction | speed knots | gust knots | rain 1hr in | rain 24hr in | rain mn in | humidity % | barometer mb |
| 20260509064810 | 60 | 295 | 0.0 | 0.0 | 0.00 | 0.00 | 0.00 | 95 | 1015.2 |
| 20260509064307 | 60 | 283 | 0.0 | 0.0 | 0.00 | 0.00 | 0.00 | 95 | 1015.2 |
| 20260509063805 | 60 | 285 | 0.0 | 0.0 | 0.00 | 0.00 | 0.00 | 96 | 1015.2 |
| 20260509063301 | 60 | 243 | 0.0 | 0.0 | 0.00 | 0.00 | 0.00 | 96 | 1015.2 |
| 20260509062758 | 60 | 258 | 0.0 | 0.0 | 0.00 | 0.00 | 0.00 | 96 | 1015.6 |
| 20260509062255 | 60 | 255 | 0.0 | 0.0 | 0.00 | 0.00 | 0.00 | 96 | 1015.6 |
| 20260509061752 | 60 | 214 | 0.0 | 0.0 | 0.00 | 0.00 | 0.00 | 97 | 1015.2 |
| 20260509061250 | 60 | 231 | 0.0 | 0.0 | 0.00 | 0.00 | 0.00 | 97 | 1015.2 |
| 20260509060747 | 60 | 259 | 0.0 | 0.0 | 0.00 | 0.00 | 0.00 | 97 | 1015.6 |
| 20260509060243 | 60 | 256 | 0.0 | 0.0 | 0.00 | 0.00 | 0.00 | 97 | 1015.6 |
| 20260509055739 | 60 | 271 | 0.0 | 0.0 | 0.00 | 0.00 | 0.00 | 97 | 1015.6 |
| 20260509055235 | 60 | 228 | 0.0 | 0.0 | 0.00 | 0.00 | 0.00 | 97 | 1015.6 |
| 20260509054732 | 60 | 240 | 0.0 | 0.0 | 0.00 | 0.00 | 0.00 | 97 | 1015.6 |
| 20260509054229 | 60 | 246 | 0.0 | 0.0 | 0.00 | 0.00 | 0.00 | 97 | 1015.2 |
| 20260509053727 | 59 | 243 | 0.0 | 0.0 | 0.00 | 0.00 | 0.00 | 97 | 1015.6 |
| 20260509053224 | 59 | 246 | 0.0 | 0.0 | 0.00 | 0.00 | 0.00 | 97 | 1015.6 |
| 20260509052722 | 59 | 264 | 0.0 | 0.0 | 0.00 | 0.00 | 0.00 | 97 | 1015.6 |
| 20260509052219 | 59 | 243 | 0.0 | 0.0 | 0.00 | 0.00 | 0.00 | 97 | 1015.2 |
| 20260509051717 | 59 | 235 | 0.0 | 0.0 | 0.00 | 0.00 | 0.00 | 97 | 1015.2 |
| 20260509051215 | 59 | 261 | 0.0 | 0.0 | 0.00 | 0.00 | 0.00 | 97 | 1015.6 |
| 20260509050711 | 59 | 235 | 0.0 | 0.0 | 0.00 | 0.00 | 0.00 | 97 | 1015.2 |
| 20260509050208 | 59 | 244 | 0.0 | 0.0 | 0.00 | 0.00 | 0.00 | 97 | 1015.6 |
| 20260509045705 | 59 | 243 | 0.0 | 0.0 | 0.00 | 0.00 | 0.00 | 97 | 1015.2 |
| 20260509045202 | 59 | 271 | 0.0 | 0.0 | 0.00 | 0.00 | 0.00 | 97 | 1015.2 |
| 20260509044659 | 59 | 244 | 0.0 | 0.0 | 0.00 | 0.00 | 0.00 | 97 | 1015.2 |
| 20260509044156 | 60 | 235 | 0.0 | 0.0 | 0.00 | 0.00 | 0.00 | 97 | 1015.2 |
| 20260509043653 | 60 | 219 | 0.0 | 0.0 | 0.00 | 0.00 | 0.00 | 97 | 1015.6 |
| 20260509043148 | 60 | 250 | 0.0 | 0.0 | 0.00 | 0.00 | 0.00 | 96 | 1015.2 |
| 20260509042645 | 60 | 232 | 0.0 | 0.0 | 0.00 | 0.00 | 0.00 | 96 | 1015.2 |
| 20260509042141 | 60 | 241 | 0.0 | 0.0 | 0.00 | 0.00 | 0.00 | 96 | 1015.2 |
| 20260509041638 | 60 | 260 | 0.0 | 0.0 | 0.00 | 0.00 | 0.00 | 96 | 1015.2 |
| 20260509041135 | 60 | 236 | 6.1 | 7.0 | 0.00 | 0.00 | 0.00 | 96 | 1015.2 |
| 20260509040634 | 60 | 238 | 2.6 | 4.3 | 0.00 | 0.00 | 0.00 | 96 | 1015.2 |
| 20260509040131 | 60 | 235 | 0.0 | 0.9 | 0.00 | 0.00 | 0.00 | 96 | 1014.9 |
| 20260509035627 | 60 | 241 | 6.1 | 7.8 | 0.00 | 0.00 | 0.00 | 96 | 1014.9 |
| 20260509035124 | 60 | 269 | 0.0 | 1.7 | 0.00 | 0.00 | 0.00 | 96 | 1014.9 |
| 20260509034622 | 60 | 275 | 0.0 | 0.0 | 0.00 | 0.00 | 0.00 | 96 | 1014.9 |
| 20260509034119 | 60 | 207 | 1.7 | 2.6 | 0.00 | 0.00 | 0.00 | 96 | 1014.9 |
| 20260509033615 | 60 | 259 | 0.0 | 0.0 | 0.00 | 0.00 | 0.00 | 96 | 1014.9 |
| 20260509033112 | 60 | 260 | 4.3 | 8.7 | 0.00 | 0.00 | 0.00 | 96 | 1014.9 |
| 20260509032610 | 60 | 186 | 0.0 | 0.0 | 0.00 | 0.00 | 0.00 | 96 | 1014.9 |
| 20260509032107 | 61 | 243 | 1.7 | 5.2 | 0.00 | 0.00 | 0.00 | 96 | 1014.6 |
| 20260509031604 | 61 | 225 | 0.0 | 0.0 | 0.00 | 0.00 | 0.00 | 96 | 1014.6 |
| 20260509031102 | 61 | 245 | 0.0 | 0.0 | 0.00 | 0.00 | 0.00 | 96 | 1014.9 |
| 20260509030600 | 61 | 230 | 0.0 | 0.0 | 0.00 | 0.00 | 0.00 | 96 | 1014.6 |
| 20260509030056 | 61 | 253 | 4.3 | 6.1 | 0.00 | 0.00 | 0.00 | 96 | 1014.6 |
| 20260509025552 | 61 | 242 | 0.9 | 1.7 | 0.00 | 0.00 | 0.00 | 95 | 1014.6 |
| 20260509025048 | 61 | 235 | 0.0 | 0.0 | 0.00 | 0.00 | 0.00 | 95 | 1014.2 |
| 20260509024544 | 61 | 243 | 0.0 | 0.0 | 0.00 | 0.00 | 0.00 | 95 | 1014.6 |
| 20260509024040 | 61 | 238 | 5.2 | 7.8 | 0.00 | 0.00 | 0.00 | 95 | 1014.6 |
| 20260509023538 | 61 | 262 | 0.0 | 0.0 | 0.00 | 0.00 | 0.00 | 95 | 1014.6 |
| 20260509023035 | 61 | 278 | 2.6 | 4.3 | 0.00 | 0.00 | 0.00 | 95 | 1014.2 |
| 20260509022531 | 61 | 277 | 0.0 | 0.9 | 0.00 | 0.00 | 0.00 | 95 | 1014.2 |
| 20260509022029 | 61 | 225 | 3.5 | 6.1 | 0.00 | 0.00 | 0.00 | 95 | 1014.2 |
| 20260509021526 | 61 | 231 | 4.3 | 6.1 | 0.00 | 0.00 | 0.00 | 95 | 1014.2 |
| 20260509021023 | 61 | 244 | 3.5 | 7.0 | 0.00 | 0.00 | 0.00 | 95 | 1014.2 |
| 20260509020521 | 62 | 269 | 5.2 | 6.1 | 0.00 | 0.00 | 0.00 | 95 | 1014.2 |
| 20260509020018 | 62 | 245 | 7.8 | 8.7 | 0.00 | 0.00 | 0.00 | 94 | 1014.2 |
| 20260509015517 | 62 | 217 | 0.0 | 0.0 | 0.00 | 0.00 | 0.00 | 94 | 1014.2 |
| 20260509015014 | 62 | 228 | 3.5 | 5.2 | 0.00 | 0.00 | 0.00 | 94 | 1014.2 |
| 20260509014510 | 63 | 245 | 5.2 | 7.0 | 0.00 | 0.00 | 0.00 | 93 | 1013.9 |
| 20260509014006 | 63 | 269 | 0.0 | 0.0 | 0.00 | 0.00 | 0.00 | 92 | 1014.2 |
| 20260509013504 | 63 | 232 | 4.3 | 7.0 | 0.00 | 0.00 | 0.00 | 92 | 1014.2 |
| 20260509012959 | 63 | 239 | 7.8 | 9.6 | 0.00 | 0.00 | 0.00 | 92 | 1013.9 |
| 20260509012455 | 63 | 244 | 7.8 | 9.6 | 0.00 | 0.00 | 0.00 | 92 | 1014.2 |
| 20260509011953 | 63 | 243 | 4.3 | 5.2 | 0.00 | 0.00 | 0.00 | 91 | 1014.2 |
| 20260509011450 | 64 | 268 | 9.6 | 12.2 | 0.00 | 0.00 | 0.00 | 91 | 1014.2 |
| 20260509010948 | 64 | 202 | 5.2 | 8.7 | 0.00 | 0.00 | 0.00 | 90 | 1014.2 |
| 20260509010446 | 64 | 155 | 0.0 | 0.9 | 0.00 | 0.00 | 0.00 | 91 | 1014.2 |
| 20260509005942 | 64 | 237 | 8.7 | 9.6 | 0.00 | 0.00 | 0.00 | 91 | 1013.9 |
| 20260509005440 | 64 | 231 | 6.1 | 9.6 | 0.00 | 0.00 | 0.00 | 91 | 1013.9 |
| 20260509004940 | 64 | 279 | 0.9 | 2.6 | 0.00 | 0.00 | 0.00 | 90 | 1014.2 |
| 20260509004437 | 65 | 204 | 4.3 | 7.0 | 0.00 | 0.00 | 0.00 | 89 | 1014.2 |
| 20260509003935 | 66 | 233 | 7.0 | 9.6 | 0.00 | 0.00 | 0.00 | 87 | 1014.2 |
| 20260509003433 | 66 | 221 | 4.3 | 6.1 | 0.00 | 0.00 | 0.00 | 87 | 1014.6 |
| 20260509002929 | 66 | 302 | 5.2 | 7.0 | 0.00 | 0.00 | 0.00 | 87 | 1014.2 |
| 20260509002427 | 67 | 153 | 7.0 | 7.8 | 0.00 | 0.00 | 0.00 | 85 | 1014.2 |
| 20260509001924 | 66 | 230 | 5.2 | 7.0 | 0.00 | 0.00 | 0.00 | 87 | 1014.2 |
| 20260509001420 | 65 | 244 | 6.1 | 7.8 | 0.00 | 0.00 | 0.00 | 87 | 1014.2 |
| 20260509000917 | 66 | 237 | 9.6 | 11.3 | 0.00 | 0.00 | 0.00 | 85 | 1014.2 |
| 20260509000417 | 67 | 222 | 7.8 | 9.6 | 0.00 | 0.00 | 0.00 | 84 | 1014.2 |
| 20260508235911 | 68 | 174 | 6.1 | 8.7 | 0.00 | 0.00 | 0.00 | 82 | 1014.2 |
| 20260508235409 | 67 | 252 | 7.0 | 8.7 | 0.00 | 0.00 | 0.00 | 83 | 1014.2 |
| 20260508234905 | 67 | 239 | 9.6 | 12.2 | 0.00 | 0.00 | 0.00 | 84 | 1014.2 |
| 20260508234402 | 67 | 230 | 4.3 | 7.0 | 0.00 | 0.00 | 0.00 | 83 | 1014.6 |
| 20260508233900 | 68 | 248 | 7.8 | 8.7 | 0.00 | 0.00 | 0.00 | 82 | 1014.2 |
| 20260508233400 | 67 | 250 | 7.0 | 7.8 | 0.00 | 0.00 | 0.00 | 82 | 1014.2 |
| 20260508232856 | 68 | 248 | 7.8 | 9.6 | 0.00 | 0.00 | 0.00 | 82 | 1014.2 |
| 20260508232352 | 68 | 256 | 7.0 | 8.7 | 0.00 | 0.00 | 0.00 | 82 | 1014.2 |
| 20260508231851 | 67 | 212 | 7.8 | 11.3 | 0.00 | 0.00 | 0.00 | 82 | 1014.6 |
| 20260508231347 | 67 | 211 | 10.4 | 13.0 | 0.00 | 0.00 | 0.00 | 82 | 1014.6 |
| 20260508230843 | 67 | 224 | 1.7 | 6.1 | 0.00 | 0.00 | 0.00 | 83 | 1014.9 |
| 20260508230340 | 68 | 255 | 8.7 | 11.3 | 0.00 | 0.00 | 0.00 | 81 | 1014.6 |
| 20260508225838 | 68 | 203 | 3.5 | 7.8 | 0.00 | 0.00 | 0.00 | 82 | 1014.6 |
| 20260508225334 | 69 | 227 | 8.7 | 9.6 | 0.00 | 0.00 | 0.00 | 81 | 1014.9 |
| 20260508224832 | 69 | 215 | 7.8 | 8.7 | 0.00 | 0.00 | 0.00 | 80 | 1014.9 |
| 20260508224329 | 68 | 255 | 6.1 | 7.8 | 0.00 | 0.00 | 0.00 | 81 | 1014.6 |
| 20260508223827 | 69 | 210 | 7.0 | 8.7 | 0.00 | 0.00 | 0.00 | 80 | 1014.9 |
| 20260508223324 | 68 | 247 | 0.0 | 0.9 | 0.00 | 0.00 | 0.00 | 82 | 1014.9 |
| 20260508222821 | 69 | 241 | 7.8 | 8.7 | 0.00 | 0.00 | 0.00 | 81 | 1015.2 |
| 20260508222318 | 70 | 281 | 6.1 | 7.0 | 0.00 | 0.00 | 0.00 | 78 | 1015.2 |
| 20260508221815 | 69 | 278 | 7.0 | 8.7 | 0.00 | 0.00 | 0.00 | 80 | 1015.2 |
| 20260508221310 | 69 | 237 | 7.8 | 9.6 | 0.00 | 0.00 | 0.00 | 78 | 1015.2 |
| 20260508220807 | 69 | 241 | 0.9 | 2.6 | 0.00 | 0.00 | 0.00 | 80 | 1015.2 |
| 20260508220304 | 69 | 235 | 5.2 | 7.0 | 0.00 | 0.00 | 0.00 | 80 | 1015.6 |
| 20260508215800 | 69 | 230 | 6.1 | 7.0 | 0.00 | 0.00 | 0.00 | 79 | 1015.2 |
| 20260508215257 | 68 | 209 | 4.3 | 6.1 | 0.00 | 0.00 | 0.00 | 81 | 1015.2 |
| 20260508214754 | 69 | 234 | 8.7 | 9.6 | 0.00 | 0.00 | 0.00 | 81 | 1015.6 |
| 20260508214251 | 70 | 199 | 4.3 | 5.2 | 0.00 | 0.00 | 0.00 | 80 | 1015.6 |
| 20260508213747 | 70 | 250 | 9.6 | 11.3 | 0.00 | 0.00 | 0.00 | 79 | 1015.6 |
| 20260508213244 | 69 | 254 | 5.2 | 6.1 | 0.00 | 0.00 | 0.00 | 80 | 1015.6 |
| 20260508212741 | 69 | 248 | 8.7 | 9.6 | 0.00 | 0.00 | 0.00 | 79 | 1015.6 |
| 20260508212237 | 70 | 235 | 1.7 | 2.6 | 0.00 | 0.00 | 0.00 | 78 | 1015.6 |
| 20260508211733 | 69 | 250 | 4.3 | 6.1 | 0.00 | 0.00 | 0.00 | 79 | 1015.9 |
| 20260508211229 | 71 | 246 | 7.0 | 7.8 | 0.00 | 0.00 | 0.00 | 78 | 1015.6 |
| 20260508210727 | 70 | 187 | 4.3 | 5.2 | 0.00 | 0.00 | 0.00 | 78 | 1015.9 |
| 20260508210223 | 69 | 247 | 7.0 | 7.8 | 0.00 | 0.00 | 0.00 | 80 | 1015.6 |
| 20260508205720 | 70 | 285 | 7.8 | 8.7 | 0.00 | 0.00 | 0.00 | 77 | 1015.9 |
| 20260508205217 | 69 | 250 | 7.0 | 8.7 | 0.00 | 0.00 | 0.00 | 77 | 1015.9 |
| 20260508204713 | 69 | 279 | 7.0 | 8.7 | 0.00 | 0.00 | 0.00 | 78 | 1015.9 |
| 20260508204209 | 69 | 287 | 6.1 | 7.8 | 0.00 | 0.00 | 0.00 | 80 | 1015.9 |
| 20260508203705 | 70 | 262 | 8.7 | 9.6 | 0.00 | 0.00 | 0.00 | 78 | 1016.2 |
| 20260508203202 | 70 | 219 | 6.1 | 8.7 | 0.00 | 0.00 | 0.00 | 77 | 1015.9 |
| 20260508202658 | 69 | 263 | 6.1 | 7.0 | 0.00 | 0.00 | 0.00 | 79 | 1015.9 |
| 20260508202155 | 69 | 258 | 4.3 | 5.2 | 0.00 | 0.00 | 0.00 | 80 | 1015.9 |
| 20260508201652 | 69 | 259 | 5.2 | 8.7 | 0.00 | 0.00 | 0.00 | 80 | 1016.2 |
| 20260508201149 | 71 | 262 | 0.0 | 0.0 | 0.00 | 0.00 | 0.00 | 78 | 1015.9 |
| 20260508200646 | 69 | 226 | 6.1 | 7.0 | 0.00 | 0.00 | 0.00 | 80 | 1015.9 |
| 20260508200142 | 70 | 262 | 6.1 | 7.8 | 0.00 | 0.00 | 0.00 | 79 | 1015.9 |
| 20260508195638 | 69 | 325 | 0.9 | 1.7 | 0.00 | 0.00 | 0.00 | 80 | 1016.2 |
| 20260508195134 | 71 | 225 | 4.3 | 6.1 | 0.00 | 0.00 | 0.00 | 77 | 1016.6 |
| 20260508194631 | 71 | 260 | 8.7 | 9.6 | 0.00 | 0.00 | 0.00 | 76 | 1016.2 |
| 20260508194128 | 70 | 241 | 0.9 | 0.9 | 0.00 | 0.00 | 0.00 | 80 | 1016.2 |
| 20260508193625 | 71 | 222 | 0.0 | 0.0 | 0.00 | 0.00 | 0.00 | 77 | 1016.2 |
| 20260508193122 | 73 | 106 | 0.0 | 0.0 | 0.00 | 0.00 | 0.00 | 74 | 1016.6 |
| 20260508192618 | 71 | 22 | 0.0 | 0.0 | 0.00 | 0.00 | 0.00 | 76 | 1016.2 |
| 20260508192115 | 70 | 126 | 0.0 | 0.0 | 0.00 | 0.00 | 0.00 | 77 | 1016.6 |
| 20260508191612 | 70 | 167 | 0.0 | 0.0 | 0.00 | 0.00 | 0.00 | 78 | 1016.6 |
| 20260508191109 | 70 | 198 | 0.0 | 0.0 | 0.00 | 0.00 | 0.00 | 77 | 1016.6 |
| 20260508190606 | 70 | 162 | 0.0 | 0.0 | 0.00 | 0.00 | 0.00 | 76 | 1016.6 |
| 20260508190103 | 70 | 127 | 0.0 | 0.0 | 0.00 | 0.00 | 0.00 | 77 | 1016.9 |
| 20260508185600 | 69 | 40 | 0.0 | 0.0 | 0.00 | 0.00 | 0.00 | 79 | 1016.9 |
| 20260508185057 | 68 | 49 | 0.0 | 0.0 | 0.00 | 0.00 | 0.00 | 80 | 1016.9 |
| 20260508184554 | 68 | 53 | 0.0 | 0.0 | 0.00 | 0.00 | 0.00 | 81 | 1016.6 |
| 20260508184051 | 68 | 9 | 0.0 | 0.0 | 0.00 | 0.00 | 0.00 | 81 | 1016.9 |
| 20260508183548 | 68 | 33 | 0.0 | 0.0 | 0.00 | 0.00 | 0.00 | 82 | 1016.9 |
| 20260508183044 | 68 | 34 | 0.0 | 0.0 | 0.00 | 0.00 | 0.00 | 82 | 1016.9 |
| 20260508182540 | 67 | 74 | 0.0 | 0.0 | 0.00 | 0.00 | 0.00 | 83 | 1017.3 |
| 20260508182037 | 66 | 34 | 0.0 | 0.0 | 0.00 | 0.00 | 0.00 | 85 | 1016.9 |
| 20260508181532 | 66 | 150 | 0.0 | 0.0 | 0.00 | 0.00 | 0.00 | 86 | 1017.3 |
| 20260508181031 | 66 | 132 | 0.0 | 0.0 | 0.00 | 0.00 | 0.00 | 86 | 1017.3 |
| 20260508180527 | 66 | 177 | 0.0 | 0.0 | 0.00 | 0.00 | 0.00 | 86 | 1017.3 |
| 20260508180023 | 66 | 152 | 0.0 | 0.0 | 0.00 | 0.00 | 0.00 | 85 | 1016.9 |
| 20260508175520 | 65 | 72 | 0.0 | 0.0 | 0.00 | 0.00 | 0.00 | 86 | 1017.3 |
| 20260508175017 | 65 | 62 | 0.0 | 0.0 | 0.00 | 0.00 | 0.00 | 88 | 1017.3 |
| 20260508174514 | 65 | 97 | 0.0 | 0.0 | 0.00 | 0.00 | 0.00 | 87 | 1017.3 |
| 20260508174011 | 64 | 86 | 0.0 | 0.0 | 0.00 | 0.00 | 0.00 | 88 | 1017.3 |
| 20260508173508 | 64 | 73 | 0.0 | 0.0 | 0.00 | 0.00 | 0.00 | 89 | 1017.6 |
| 20260508173004 | 64 | 145 | 0.0 | 0.0 | 0.00 | 0.00 | 0.00 | 89 | 1017.3 |
| 20260508172501 | 64 | 133 | 0.0 | 0.0 | 0.00 | 0.00 | 0.00 | 89 | 1017.3 |
| 20260508171958 | 64 | 100 | 0.0 | 0.0 | 0.00 | 0.00 | 0.00 | 89 | 1017.3 |
| 20260508171455 | 64 | 114 | 0.0 | 0.0 | 0.00 | 0.00 | 0.00 | 89 | 1017.6 |
| 20260508170951 | 63 | 76 | 0.0 | 0.9 | 0.00 | 0.00 | 0.00 | 90 | 1017.6 |
| 20260508170448 | 64 | 62 | 0.0 | 0.0 | 0.00 | 0.00 | 0.00 | 89 | 1017.3 |
| 20260508165945 | 64 | 87 | 0.0 | 0.0 | 0.00 | 0.00 | 0.00 | 90 | 1017.3 |
| 20260508165444 | 63 | 65 | 1.7 | 2.6 | 0.00 | 0.00 | 0.00 | 90 | 1017.3 |
| 20260508164939 | 63 | 98 | 0.0 | 0.0 | 0.00 | 0.00 | 0.00 | 91 | 1017.6 |
| 20260508164436 | 63 | 66 | 0.0 | 0.0 | 0.00 | 0.00 | 0.00 | 91 | 1017.3 |
| 20260508163933 | 63 | 59 | 0.0 | 0.0 | 0.00 | 0.00 | 0.00 | 90 | 1017.3 |
| 20260508163431 | 63 | 82 | 0.0 | 0.0 | 0.00 | 0.00 | 0.00 | 90 | 1017.3 |
| 20260508162926 | 63 | 131 | 0.0 | 0.0 | 0.00 | 0.00 | 0.00 | 91 | 1017.3 |
| 20260508162424 | 63 | 90 | 0.0 | 0.0 | 0.00 | 0.00 | 0.00 | 91 | 1017.3 |
| 20260508161921 | 63 | 62 | 0.0 | 0.0 | 0.00 | 0.00 | 0.00 | 92 | 1017.3 |
| 20260508161418 | 63 | 101 | 0.0 | 0.0 | 0.00 | 0.00 | 0.00 | 92 | 1017.3 |
| 20260508160915 | 62 | 101 | 0.0 | 0.0 | 0.00 | 0.00 | 0.00 | 92 | 1017.3 |
| 20260508160414 | 62 | 151 | 0.0 | 0.0 | 0.00 | 0.00 | 0.00 | 92 | 1017.3 |
| 20260508155909 | 62 | 144 | 0.0 | 0.0 | 0.00 | 0.00 | 0.00 | 92 | 1017.3 |
| 20260508155407 | 62 | 93 | 0.0 | 0.0 | 0.00 | 0.00 | 0.00 | 92 | 1016.9 |
| 20260508154904 | 62 | 88 | 0.0 | 0.0 | 0.00 | 0.00 | 0.00 | 93 | 1017.3 |
| 20260508154401 | 62 | 128 | 2.6 | 2.6 | 0.00 | 0.00 | 0.00 | 93 | 1016.9 |
| 20260508153858 | 62 | 94 | 0.0 | 0.0 | 0.00 | 0.00 | 0.00 | 93 | 1017.3 |
| 20260508153355 | 62 | 88 | 0.0 | 0.0 | 0.00 | 0.00 | 0.00 | 94 | 1016.9 |
| 20260508152851 | 62 | 48 | 0.0 | 0.0 | 0.00 | 0.00 | 0.00 | 94 | 1017.3 |
| 20260508152347 | 62 | 87 | 0.0 | 0.0 | 0.00 | 0.00 | 0.00 | 93 | 1016.9 |
| 20260508151844 | 62 | 72 | 0.0 | 0.0 | 0.00 | 0.00 | 0.00 | 93 | 1017.3 |
| 20260508151341 | 62 | 57 | 0.0 | 0.0 | 0.00 | 0.00 | 0.00 | 94 | 1016.9 |
| 20260508150837 | 62 | 57 | 0.0 | 0.0 | 0.00 | 0.00 | 0.00 | 94 | 1017.3 |
| 20260508150334 | 62 | 79 | 0.0 | 0.0 | 0.00 | 0.00 | 0.00 | 94 | 1016.9 |
| 20260508145830 | 62 | 93 | 0.0 | 0.0 | 0.00 | 0.00 | 0.00 | 94 | 1016.9 |
| 20260508145327 | 61 | 83 | 0.0 | 0.0 | 0.00 | 0.00 | 0.00 | 95 | 1017.3 |
| 20260508144823 | 61 | 64 | 0.0 | 0.0 | 0.00 | 0.00 | 0.00 | 95 | 1017.3 |
| 20260508144321 | 61 | 64 | 0.0 | 0.0 | 0.00 | 0.00 | 0.00 | 95 | 1017.6 |
| 20260508143819 | 61 | 62 | 0.0 | 0.0 | 0.00 | 0.00 | 0.00 | 95 | 1017.3 |
| 20260508143315 | 61 | 58 | 0.0 | 0.0 | 0.00 | 0.00 | 0.00 | 95 | 1017.3 |
| 20260508142812 | 61 | 61 | 0.0 | 0.0 | 0.00 | 0.00 | 0.00 | 96 | 1016.9 |
| 20260508142309 | 61 | 97 | 0.0 | 0.0 | 0.00 | 0.00 | 0.00 | 96 | 1017.3 |
| 20260508141806 | 61 | 68 | 0.0 | 0.0 | 0.00 | 0.00 | 0.00 | 96 | 1017.3 |
| 20260508141303 | 61 | 70 | 0.0 | 0.0 | 0.00 | 0.00 | 0.00 | 96 | 1017.3 |
| 20260508140800 | 61 | 75 | 0.0 | 0.0 | 0.00 | 0.00 | 0.00 | 96 | 1017.3 |
| 20260508140257 | 61 | 60 | 0.0 | 0.0 | 0.00 | 0.00 | 0.00 | 96 | 1016.9 |
| 20260508135752 | 61 | 38 | 0.0 | 0.0 | 0.00 | 0.00 | 0.00 | 96 | 1016.9 |
| 20260508135249 | 61 | 51 | 0.0 | 0.0 | 0.00 | 0.00 | 0.00 | 97 | 1016.9 |
| 20260508134745 | 60 | 100 | 0.0 | 0.0 | 0.00 | 0.00 | 0.00 | 97 | 1016.9 |
| 20260508134242 | 60 | 98 | 0.0 | 0.0 | 0.00 | 0.00 | 0.00 | 97 | 1016.9 |
| 20260508133739 | 60 | 66 | 0.0 | 0.0 | 0.00 | 0.00 | 0.00 | 98 | 1016.9 |
| 20260508133236 | 60 | 70 | 0.0 | 0.0 | 0.00 | 0.00 | 0.00 | 98 | 1016.9 |
| 20260508132734 | 60 | 76 | 0.0 | 0.0 | 0.00 | 0.00 | 0.00 | 99 | 1017.3 |
| 20260508132231 | 60 | 75 | 0.0 | 0.0 | 0.00 | 0.00 | 0.00 | 99 | 1016.9 |
| 20260508131727 | 60 | 61 | 0.0 | 0.0 | 0.00 | 0.00 | 0.00 | 99 | 1016.6 |
| 20260508131224 | 60 | 82 | 0.0 | 0.0 | 0.00 | 0.00 | 0.00 | 99 | 1016.6 |
| 20260508130720 | 60 | 77 | 0.0 | 0.0 | 0.00 | 0.00 | 0.00 | 99 | 1016.6 |
| 20260508130217 | 60 | 65 | 2.6 | 4.3 | 0.00 | 0.00 | 0.00 | 99 | 1016.6 |
| 20260508125713 | 60 | 93 | 0.0 | 0.0 | 0.00 | 0.00 | 0.00 | 99 | 1016.6 |
| 20260508125209 | 60 | 65 | 0.0 | 0.0 | 0.00 | 0.00 | 0.00 | 99 | 1016.6 |
| 20260508124708 | 60 | 52 | 0.0 | 0.0 | 0.00 | 0.00 | 0.00 | 99 | 1016.6 |
| 20260508124204 | 60 | 74 | 0.0 | 0.0 | 0.00 | 0.00 | 0.00 | 99 | 1016.6 |
| 20260508123703 | 60 | 83 | 0.0 | 0.0 | 0.00 | 0.00 | 0.00 | 99 | 1016.2 |
| 20260508123201 | 60 | 77 | 3.5 | 4.3 | 0.00 | 0.00 | 0.00 | 99 | 1016.6 |
| 20260508122656 | 61 | 63 | 0.0 | 0.0 | 0.00 | 0.00 | 0.00 | 99 | 1016.6 |
| 20260508122153 | 61 | 72 | 0.0 | 0.0 | 0.00 | 0.00 | 0.00 | 99 | 1016.6 |
| 20260508121651 | 61 | 76 | 0.0 | 0.0 | 0.00 | 0.00 | 0.00 | 99 | 1016.6 |
| 20260508121149 | 61 | 61 | 0.0 | 1.7 | 0.00 | 0.00 | 0.00 | 99 | 1016.2 |
| 20260508120646 | 61 | 81 | 0.0 | 0.0 | 0.00 | 0.00 | 0.00 | 99 | 1016.6 |
| 20260508120144 | 61 | 68 | 0.0 | 0.0 | 0.00 | 0.00 | 0.00 | 98 | 1016.6 |
| 20260508115636 | 61 | 64 | 0.0 | 0.0 | 0.00 | 0.00 | 0.00 | 98 | 1016.2 |
| 20260508115132 | 61 | 52 | 0.0 | 0.0 | 0.00 | 0.00 | 0.00 | 98 | 1016.2 |
| 20260508114630 | 61 | 55 | 0.0 | 0.0 | 0.00 | 0.00 | 0.00 | 98 | 1016.2 |
| 20260508114126 | 61 | 74 | 0.0 | 0.0 | 0.00 | 0.00 | 0.00 | 98 | 1016.2 |
| 20260508113623 | 61 | 88 | 0.0 | 0.0 | 0.00 | 0.00 | 0.00 | 98 | 1016.2 |
| 20260508113122 | 61 | 90 | 0.0 | 0.0 | 0.00 | 0.00 | 0.00 | 98 | 1016.2 |
| 20260508112617 | 61 | 77 | 0.0 | 0.0 | 0.00 | 0.00 | 0.00 | 97 | 1016.2 |
| 20260508112114 | 61 | 64 | 0.0 | 0.0 | 0.00 | 0.00 | 0.00 | 97 | 1016.2 |
| 20260508111611 | 61 | 88 | 0.0 | 0.0 | 0.00 | 0.00 | 0.00 | 97 | 1016.2 |
| 20260508111108 | 61 | 98 | 0.0 | 0.0 | 0.00 | 0.00 | 0.00 | 97 | 1016.2 |
| 20260508110606 | 61 | 55 | 0.0 | 0.0 | 0.00 | 0.00 | 0.00 | 97 | 1015.9 |
| 20260508105557 | 61 | 95 | 0.9 | 1.7 | 0.00 | 0.00 | 0.00 | 96 | 1016.2 |
| 20260508105054 | 61 | 64 | 0.0 | 0.0 | 0.00 | 0.00 | 0.00 | 96 | 1016.2 |
| 20260508104552 | 61 | 86 | 0.0 | 0.0 | 0.00 | 0.00 | 0.00 | 95 | 1016.2 |
| 20260508104048 | 61 | 93 | 0.0 | 0.0 | 0.00 | 0.00 | 0.00 | 95 | 1015.9 |
| 20260508103546 | 61 | 74 | 0.0 | 0.9 | 0.00 | 0.00 | 0.00 | 95 | 1015.9 |
| 20260508103043 | 61 | 90 | 0.0 | 0.0 | 0.00 | 0.00 | 0.00 | 94 | 1016.2 |
| 20260508102540 | 61 | 68 | 0.0 | 0.0 | 0.00 | 0.00 | 0.00 | 94 | 1015.9 |
| 20260508102038 | 61 | 89 | 0.0 | 0.0 | 0.00 | 0.00 | 0.00 | 94 | 1016.2 |
| 20260508101535 | 61 | 68 | 0.0 | 0.0 | 0.00 | 0.00 | 0.00 | 94 | 1016.2 |
| 20260508101032 | 61 | 77 | 0.0 | 0.0 | 0.00 | 0.00 | 0.00 | 94 | 1016.2 |
| 20260508100530 | 60 | 57 | 0.0 | 0.0 | 0.00 | 0.00 | 0.00 | 94 | 1016.2 |
| 20260508100027 | 60 | 63 | 0.0 | 0.0 | 0.00 | 0.00 | 0.00 | 94 | 1016.2 |
| 20260508095524 | 60 | 71 | 0.0 | 0.0 | 0.00 | 0.00 | 0.00 | 94 | 1016.2 |
| 20260508095021 | 60 | 80 | 0.0 | 0.0 | 0.00 | 0.00 | 0.00 | 94 | 1016.6 |
| 20260508094518 | 60 | 91 | 0.0 | 0.0 | 0.00 | 0.00 | 0.00 | 94 | 1016.2 |
| 20260508094015 | 60 | 91 | 0.0 | 0.0 | 0.00 | 0.00 | 0.00 | 94 | 1016.6 |
| 20260508093512 | 61 | 131 | 0.0 | 0.0 | 0.00 | 0.00 | 0.00 | 94 | 1016.2 |
| 20260508093009 | 61 | 171 | 0.0 | 0.0 | 0.00 | 0.00 | 0.00 | 94 | 1016.2 |
| 20260508092506 | 61 | 97 | 0.0 | 0.0 | 0.00 | 0.00 | 0.00 | 94 | 1016.2 |
| 20260508092006 | 61 | 70 | 0.0 | 0.0 | 0.00 | 0.00 | 0.00 | 94 | 1016.6 |
| 20260508091502 | 61 | 137 | 0.0 | 0.0 | 0.00 | 0.00 | 0.00 | 94 | 1016.6 |
| 20260508090959 | 61 | 67 | 0.0 | 0.0 | 0.00 | 0.00 | 0.00 | 94 | 1016.6 |
| 20260508090457 | 61 | 58 | 0.0 | 0.0 | 0.00 | 0.00 | 0.00 | 94 | 1016.6 |
| 20260508085953 | 61 | 78 | 0.0 | 0.0 | 0.00 | 0.00 | 0.00 | 95 | 1016.6 |
| 20260508085450 | 61 | 81 | 0.0 | 0.0 | 0.00 | 0.00 | 0.00 | 95 | 1016.6 |
| 20260508084947 | 61 | 70 | 0.0 | 0.0 | 0.00 | 0.00 | 0.00 | 95 | 1016.6 |
| 20260508084443 | 61 | 94 | 0.0 | 0.0 | 0.00 | 0.00 | 0.00 | 95 | 1016.6 |
| 20260508083942 | 61 | 72 | 0.0 | 0.0 | 0.00 | 0.00 | 0.00 | 95 | 1016.6 |
| 20260508083438 | 61 | 74 | 0.0 | 0.0 | 0.00 | 0.00 | 0.00 | 95 | 1016.6 |
| 20260508082933 | 61 | 57 | 0.0 | 0.0 | 0.00 | 0.00 | 0.00 | 95 | 1016.6 |
| 20260508082430 | 61 | 45 | 0.0 | 0.0 | 0.00 | 0.00 | 0.00 | 95 | 1016.6 |
| 20260508081928 | 61 | 70 | 0.0 | 0.0 | 0.00 | 0.00 | 0.00 | 95 | 1016.6 |
| 20260508081424 | 61 | 57 | 0.0 | 0.0 | 0.00 | 0.00 | 0.00 | 96 | 1016.6 |
| 20260508080920 | 61 | 40 | 0.0 | 0.0 | 0.00 | 0.00 | 0.00 | 96 | 1016.9 |
| 20260508080419 | 61 | 17 | 0.0 | 0.0 | 0.00 | 0.00 | 0.00 | 96 | 1016.9 |
| 20260508075915 | 61 | 0 | 0.0 | 0.0 | 0.00 | 0.00 | 0.00 | 96 | 1016.9 |
| 20260508075413 | 60 | 10 | 0.0 | 0.0 | 0.00 | 0.00 | 0.00 | 96 | 1016.9 |
| 20260508074910 | 60 | 358 | 0.0 | 0.0 | 0.00 | 0.00 | 0.00 | 96 | 1016.9 |
| 20260508074407 | 60 | 7 | 0.0 | 0.0 | 0.00 | 0.00 | 0.00 | 96 | 1016.9 |
| 20260508073904 | 60 | 7 | 0.0 | 0.0 | 0.00 | 0.00 | 0.00 | 96 | 1016.9 |
| 20260508073402 | 61 | 0 | 0.0 | 0.0 | 0.00 | 0.00 | 0.00 | 96 | 1016.9 |
| 20260508072858 | 61 | 4 | 0.0 | 0.0 | 0.00 | 0.00 | 0.00 | 96 | 1016.9 |
| 20260508072354 | 61 | 9 | 0.0 | 0.0 | 0.00 | 0.00 | 0.00 | 95 | 1016.9 |
| 20260508071852 | 61 | 3 | 0.0 | 0.0 | 0.00 | 0.00 | 0.00 | 95 | 1016.6 |
| 20260508071350 | 61 | 18 | 0.0 | 0.0 | 0.00 | 0.00 | 0.00 | 95 | 1016.9 |
| 20260508070848 | 61 | 32 | 0.0 | 0.0 | 0.00 | 0.00 | 0.00 | 95 | 1016.9 |
| 20260508070345 | 60 | 37 | 0.0 | 0.0 | 0.00 | 0.00 | 0.00 | 95 | 1016.6 |
| 20260508065843 | 61 | 43 | 0.0 | 0.0 | 0.00 | 0.00 | 0.00 | 95 | 1016.9 |
| 20260508065341 | 61 | 49 | 0.0 | 0.0 | 0.00 | 0.00 | 0.00 | 95 | 1016.9 |